JBU1338 KMCO-KBDL

Flight info

Callsign JBU1338
Flight time 2h 22m
Altitude 35000
Route FATHE4 VIYAP Q87 JROSS ELLDE Q97 PAACK JAMIE Q481 DPK DPK3
Aircraft A321/M-SDE3FGHIRWY/LB1

Departure

Time 2026-04-23 20:04
Airport Orlando International Airport (KMCO)

Arrival

Time 2026-04-23 22:27
Airport Bradley International Airport (KBDL)
Time Latitude Longitude Altitude Speed Heading
2026-04-23 19:48 28.41562 -81.31450 100 ft 0 kts 100°
2026-04-23 19:54 28.41563 -81.31457 100 ft 4 kts 100°
2026-04-23 19:54 28.41567 -81.31482 99 ft 2 kts 100°
2026-04-23 19:54 28.41569 -81.31510 98 ft 4 kts 74°
2026-04-23 19:55 28.41557 -81.31526 100 ft 4 kts
2026-04-23 19:55 28.41534 -81.31529 99 ft 1 kts
2026-04-23 19:58 28.41542 -81.31528 98 ft 3 kts
2026-04-23 19:58 28.41579 -81.31527 99 ft 8 kts 352°
2026-04-23 19:58 28.41635 -81.31580 100 ft 14 kts 298°
2026-04-23 19:58 28.41670 -81.31704 103 ft 19 kts 288°
2026-04-23 19:59 28.41756 -81.31836 103 ft 23 kts 312°
2026-04-23 19:59 28.41910 -81.31877 103 ft 25 kts 359°
2026-04-23 19:59 28.42092 -81.31878 103 ft 27 kts
2026-04-23 19:59 28.42285 -81.31833 105 ft 29 kts
2026-04-23 20:00 28.42499 -81.31832 106 ft 33 kts 359°
2026-04-23 20:00 28.42738 -81.31836 106 ft 36 kts 358°
2026-04-23 20:00 28.42992 -81.31838 102 ft 37 kts 359°
2026-04-23 20:00 28.43217 -81.31842 103 ft 29 kts 359°
2026-04-23 20:01 28.43424 -81.31846 103 ft 31 kts 359°
2026-04-23 20:01 28.43649 -81.31850 104 ft 33 kts 359°
2026-04-23 20:01 28.43888 -81.31854 104 ft 35 kts 359°
2026-04-23 20:01 28.44127 -81.31900 103 ft 35 kts 358°
2026-04-23 20:02 28.44378 -81.31903 103 ft 37 kts 359°
2026-04-23 20:02 28.44637 -81.31906 103 ft 38 kts 359°
2026-04-23 20:02 28.44821 -81.31967 103 ft 25 kts 287°
2026-04-23 20:02 28.44820 -81.32171 102 ft 27 kts 268°
2026-04-23 20:03 28.44715 -81.32231 103 ft 23 kts 179°
2026-04-23 20:03 28.44360 -81.32227 105 ft 82 kts 179°
2026-04-23 20:03 28.43601 -81.32219 104 ft 135 kts 179°
2026-04-23 20:03 28.42509 -81.32193 147 ft 173 kts 175°
2026-04-23 20:04 28.41285 -81.32188 688 ft 177 kts 177°
2026-04-23 20:04 28.40042 -81.32257 1388 ft 181 kts 180°
2026-04-23 20:04 28.38823 -81.32619 2012 ft 189 kts 206°
2026-04-23 20:04 28.37902 -81.33723 2396 ft 207 kts 241°
2026-04-23 20:05 28.37628 -81.34814 2657 ft 219 kts 264°
2026-04-23 20:05 28.38083 -81.37122 3164 ft 240 kts 292°
2026-04-23 20:05 28.38783 -81.38922 3538 ft 257 kts 300°
2026-04-23 20:05 28.40028 -81.40416 3957 ft 269 kts 330°
2026-04-23 20:06 28.41818 -81.41080 4452 ft 276 kts 359°
2026-04-23 20:06 28.43707 -81.40811 5192 ft 274 kts 16°
2026-04-23 20:06 28.45554 -81.40215 5971 ft 275 kts 18°
2026-04-23 20:06 28.47405 -81.39612 6703 ft 279 kts 16°
2026-04-23 20:07 28.49293 -81.39023 7360 ft 283 kts 15°
2026-04-23 20:07 28.51208 -81.38445 8064 ft 286 kts 15°
2026-04-23 20:07 28.53114 -81.37878 8777 ft 288 kts 14°
2026-04-23 20:07 28.55060 -81.37305 9467 ft 290 kts 14°
2026-04-23 20:08 28.57018 -81.36729 10126 ft 292 kts 13°
2026-04-23 20:08 28.59023 -81.36145 10495 ft 305 kts 13°
2026-04-23 20:08 28.61138 -81.35530 10742 ft 322 kts 13°
2026-04-23 20:08 28.63365 -81.34884 10961 ft 338 kts 13°
2026-04-23 20:09 28.65699 -81.34206 11176 ft 354 kts 13°
2026-04-23 20:09 28.68143 -81.33492 11406 ft 369 kts 13°
2026-04-23 20:09 28.70656 -81.32756 11829 ft 375 kts 13°
2026-04-23 20:09 28.73197 -81.32014 12359 ft 379 kts 12°
2026-04-23 20:10 28.74899 -81.31519 12719 ft 381 kts 12°
2026-04-23 20:10 28.78319 -81.30526 13530 ft 383 kts 12°
2026-04-23 20:10 28.80909 -81.29772 14083 ft 385 kts 12°
2026-04-23 20:10 28.83528 -81.29081 14573 ft 387 kts
2026-04-23 20:11 28.86213 -81.28977 15037 ft 387 kts 355°
2026-04-23 20:11 28.88906 -81.29199 15520 ft 390 kts 353°
2026-04-23 20:11 28.91622 -81.29454 16002 ft 392 kts 353°
2026-04-23 20:11 28.94353 -81.29703 16500 ft 395 kts 353°
2026-04-23 20:12 28.97103 -81.29946 16996 ft 398 kts 353°
2026-04-23 20:12 28.99868 -81.30209 17478 ft 401 kts 352°
2026-04-23 20:12 29.02657 -81.30519 17948 ft 403 kts 352°
2026-04-23 20:12 29.05459 -81.30831 18409 ft 406 kts 352°
2026-04-23 20:13 29.08280 -81.31146 18821 ft 408 kts 352°
2026-04-23 20:13 29.11125 -81.31429 19220 ft 411 kts 354°
2026-04-23 20:13 29.13987 -81.31609 19618 ft 414 kts 354°
2026-04-23 20:13 29.16874 -81.31783 20016 ft 416 kts 354°
2026-04-23 20:14 29.19772 -81.31955 20411 ft 418 kts 354°
2026-04-23 20:14 29.22685 -81.32126 20797 ft 421 kts 354°
2026-04-23 20:14 29.25604 -81.32302 21185 ft 423 kts 354°
2026-04-23 20:14 29.28564 -81.32479 21568 ft 425 kts 354°
2026-04-23 20:15 29.31526 -81.32654 21929 ft 428 kts 354°
2026-04-23 20:15 29.34506 -81.32828 22300 ft 430 kts 354°
2026-04-23 20:15 29.37499 -81.33013 22664 ft 432 kts 354°
2026-04-23 20:15 29.40470 -81.33192 23024 ft 434 kts 354°
2026-04-23 20:16 29.43486 -81.33377 23376 ft 436 kts 354°
2026-04-23 20:16 29.46528 -81.33561 23708 ft 438 kts 354°
2026-04-23 20:16 29.49591 -81.33742 23990 ft 441 kts 354°
2026-04-23 20:16 29.52658 -81.33926 24273 ft 443 kts 354°
2026-04-23 20:17 29.55741 -81.34116 24544 ft 445 kts 354°
2026-04-23 20:17 29.58837 -81.34305 24814 ft 447 kts 354°
2026-04-23 20:17 29.61949 -81.34494 25091 ft 449 kts 354°
2026-04-23 20:17 29.65073 -81.34678 25367 ft 451 kts 355°
2026-04-23 20:18 29.68211 -81.34859 25628 ft 452 kts 355°
2026-04-23 20:18 29.71361 -81.35040 25881 ft 454 kts 355°
2026-04-23 20:18 29.73453 -81.35154 26052 ft 456 kts 355°
2026-04-23 20:18 29.76632 -81.35335 26318 ft 457 kts 355°
2026-04-23 20:19 29.79816 -81.35524 26589 ft 459 kts 355°
2026-04-23 20:19 29.83019 -81.35711 26844 ft 461 kts 355°
2026-04-23 20:19 29.87281 -81.35947 27170 ft 464 kts 355°
2026-04-23 20:19 29.89463 -81.36070 27339 ft 465 kts 355°
2026-04-23 20:20 29.92701 -81.36251 27584 ft 466 kts 355°
2026-04-23 20:20 29.95951 -81.36436 27828 ft 468 kts 355°
2026-04-23 20:20 29.99210 -81.36625 28058 ft 470 kts 355°
2026-04-23 20:20 30.02479 -81.36816 28304 ft 471 kts 355°
2026-04-23 20:21 30.05746 -81.37003 28605 ft 470 kts 355°
2026-04-23 20:21 30.08973 -81.37187 28920 ft 469 kts 355°
2026-04-23 20:21 30.12240 -81.37381 29237 ft 468 kts 355°
2026-04-23 20:21 30.15493 -81.37587 29546 ft 468 kts 355°
2026-04-23 20:22 30.18742 -81.37790 29845 ft 467 kts 355°
2026-04-23 20:22 30.21988 -81.37985 30150 ft 466 kts 355°
2026-04-23 20:22 30.25228 -81.38176 30392 ft 466 kts 355°
2026-04-23 20:22 30.28461 -81.38360 30672 ft 465 kts 356°
2026-04-23 20:23 30.31699 -81.38540 30897 ft 465 kts 356°
2026-04-23 20:23 30.34925 -81.38724 31130 ft 464 kts 356°
2026-04-23 20:23 30.38146 -81.38908 31367 ft 463 kts 356°
2026-04-23 20:23 30.41367 -81.39092 31605 ft 463 kts 355°
2026-04-23 20:24 30.44578 -81.39287 31843 ft 462 kts 355°
2026-04-23 20:24 30.47753 -81.39470 32041 ft 462 kts 356°
2026-04-23 20:24 30.50959 -81.39632 32257 ft 462 kts 356°
2026-04-23 20:24 30.54211 -81.39802 32489 ft 461 kts 356°
2026-04-23 20:25 30.57369 -81.39968 32697 ft 460 kts 356°
2026-04-23 20:25 30.60567 -81.40133 32902 ft 460 kts 356°
2026-04-23 20:25 30.63766 -81.40302 33120 ft 459 kts 356°
2026-04-23 20:25 30.66953 -81.40469 33334 ft 458 kts 356°
2026-04-23 20:26 30.70137 -81.40636 33571 ft 457 kts 356°
2026-04-23 20:26 30.73313 -81.40800 33768 ft 457 kts 356°
2026-04-23 20:26 30.76485 -81.40965 33952 ft 457 kts 356°
2026-04-23 20:26 30.79667 -81.41134 34119 ft 457 kts 356°
2026-04-23 20:27 30.82838 -81.41300 34307 ft 455 kts 356°
2026-04-23 20:27 30.86000 -81.41471 34468 ft 455 kts 356°
2026-04-23 20:27 30.89161 -81.41639 34599 ft 455 kts 356°
2026-04-23 20:27 30.92329 -81.41808 34774 ft 454 kts 356°
2026-04-23 20:28 30.95444 -81.41974 34910 ft 453 kts 356°
2026-04-23 20:28 30.98593 -81.42143 35053 ft 453 kts 356°
2026-04-23 20:28 31.01736 -81.42312 35131 ft 452 kts 356°
2026-04-23 20:29 31.08005 -81.42647 35118 ft 451 kts 356°
2026-04-23 20:29 31.14272 -81.42981 35099 ft 450 kts 356°
2026-04-23 20:30 31.20519 -81.43321 35108 ft 449 kts 356°
2026-04-23 20:30 31.26728 -81.42632 35109 ft 453 kts 15°
2026-04-23 20:30 31.29659 -81.41274 35122 ft 454 kts 23°
2026-04-23 20:31 31.35375 -81.38126 35112 ft 454 kts 24°
2026-04-23 20:31 31.41096 -81.34989 35113 ft 454 kts 23°
2026-04-23 20:32 31.46820 -81.31879 35103 ft 453 kts 23°
2026-04-23 20:32 31.52549 -81.28767 35099 ft 453 kts 23°
2026-04-23 20:33 31.58269 -81.25647 35100 ft 453 kts 23°
2026-04-23 20:33 31.63944 -81.22556 35104 ft 452 kts 23°
2026-04-23 20:34 31.69650 -81.19440 35090 ft 452 kts 23°
2026-04-23 20:34 31.75354 -81.16320 35076 ft 452 kts 23°
2026-04-23 20:35 31.81058 -81.13196 35070 ft 452 kts 23°
2026-04-23 20:35 31.86765 -81.10064 35065 ft 452 kts 23°
2026-04-23 20:36 31.92464 -81.06939 35062 ft 452 kts 23°
2026-04-23 20:36 31.98164 -81.03812 35062 ft 452 kts 23°
2026-04-23 20:37 32.03820 -81.00671 35064 ft 452 kts 24°
2026-04-23 20:37 32.09504 -80.97486 35069 ft 452 kts 24°
2026-04-23 20:38 32.15181 -80.94307 35102 ft 452 kts 24°
2026-04-23 20:38 32.20867 -80.91117 35108 ft 452 kts 24°
2026-04-23 20:39 32.26553 -80.87925 35114 ft 452 kts 24°
2026-04-23 20:39 32.32223 -80.84730 35119 ft 452 kts 24°
2026-04-23 20:40 32.37893 -80.81502 35096 ft 452 kts 24°
2026-04-23 20:40 32.43572 -80.78312 35093 ft 452 kts 23°
2026-04-23 20:41 32.49258 -80.75126 35094 ft 452 kts 24°
2026-04-23 20:41 32.54884 -80.71931 35091 ft 452 kts 24°
2026-04-23 20:42 32.60552 -80.68705 35089 ft 452 kts 23°
2026-04-23 20:42 32.66234 -80.65512 35092 ft 452 kts 24°
2026-04-23 20:43 32.71740 -80.61926 35067 ft 455 kts 36°
2026-04-23 20:43 32.76445 -80.56870 35071 ft 456 kts 41°
2026-04-23 20:44 32.81067 -80.51693 35064 ft 457 kts 41°
2026-04-23 20:44 32.85700 -80.46529 35059 ft 456 kts 41°
2026-04-23 20:45 32.90316 -80.41341 35063 ft 456 kts 41°
2026-04-23 20:45 32.94949 -80.36176 35046 ft 456 kts 41°
2026-04-23 20:46 32.99580 -80.31008 35041 ft 456 kts 41°
2026-04-23 20:46 33.04177 -80.25853 35040 ft 456 kts 41°
2026-04-23 20:47 33.08809 -80.20685 35042 ft 456 kts 41°
2026-04-23 20:47 33.13441 -80.15504 35061 ft 456 kts 41°
2026-04-23 20:48 33.18058 -80.10317 35060 ft 456 kts 41°
2026-04-23 20:48 33.22662 -80.05099 35062 ft 456 kts 41°
2026-04-23 20:49 33.27289 -79.99906 35062 ft 456 kts 41°
2026-04-23 20:49 33.31898 -79.94710 35058 ft 456 kts 41°
2026-04-23 20:50 33.36502 -79.89498 35056 ft 455 kts 41°
2026-04-23 20:50 33.41072 -79.84310 35059 ft 455 kts 41°
2026-04-23 20:51 33.45681 -79.79086 35046 ft 455 kts 41°
2026-04-23 20:51 33.50280 -79.73865 35050 ft 455 kts 41°
2026-04-23 20:52 33.54873 -79.68633 35041 ft 455 kts 41°
2026-04-23 20:52 33.59460 -79.63408 35039 ft 454 kts 41°
2026-04-23 20:53 33.64013 -79.58210 35048 ft 454 kts 41°
2026-04-23 20:53 33.68588 -79.52976 35047 ft 454 kts 41°
2026-04-23 20:54 33.73163 -79.47734 35048 ft 454 kts 41°
2026-04-23 20:54 33.77731 -79.42491 35038 ft 454 kts 41°
2026-04-23 20:55 33.82297 -79.37249 35047 ft 454 kts 41°
2026-04-23 20:55 33.86857 -79.32000 35047 ft 453 kts 41°
2026-04-23 20:56 33.91384 -79.26790 35037 ft 453 kts 41°
2026-04-23 20:56 33.95941 -79.21523 35038 ft 453 kts 41°
2026-04-23 20:57 34.00482 -79.16250 35040 ft 453 kts 41°
2026-04-23 20:57 34.05018 -79.10965 35033 ft 453 kts 41°
2026-04-23 20:58 34.09554 -79.05694 35031 ft 453 kts 41°
2026-04-23 20:58 34.14092 -79.00413 35047 ft 453 kts 41°
2026-04-23 20:59 34.18592 -78.95164 35031 ft 453 kts 41°
2026-04-23 20:59 34.23129 -78.89890 35033 ft 452 kts 41°
2026-04-23 21:00 34.27661 -78.84610 35031 ft 452 kts 41°
2026-04-23 21:00 34.32189 -78.79316 35031 ft 452 kts 41°
2026-04-23 21:01 34.36707 -78.74020 35031 ft 452 kts 41°
2026-04-23 21:01 34.41333 -78.68877 35027 ft 449 kts 35°
2026-04-23 21:02 34.46313 -78.64294 35015 ft 449 kts 34°
2026-04-23 21:02 34.51287 -78.59711 35012 ft 449 kts 34°
2026-04-23 21:03 34.56213 -78.55143 35010 ft 449 kts 34°
2026-04-23 21:03 34.61173 -78.50546 35011 ft 448 kts 35°
2026-04-23 21:04 34.66121 -78.45934 35007 ft 448 kts 35°
2026-04-23 21:04 34.71065 -78.41317 35002 ft 448 kts 35°
2026-04-23 21:05 34.76007 -78.36709 35001 ft 448 kts 35°
2026-04-23 21:05 34.80948 -78.32095 35002 ft 447 kts 35°
2026-04-23 21:06 34.85854 -78.27513 35003 ft 447 kts 35°
2026-04-23 21:06 34.90783 -78.22892 35004 ft 447 kts 35°
2026-04-23 21:07 34.95720 -78.18270 35004 ft 447 kts 35°
2026-04-23 21:07 35.00644 -78.13646 34995 ft 447 kts 35°
2026-04-23 21:08 35.04740 -78.09792 34995 ft 447 kts 35°
2026-04-23 21:08 35.09676 -78.05172 34993 ft 447 kts 35°
2026-04-23 21:09 35.14610 -78.00525 34995 ft 447 kts 35°
2026-04-23 21:09 35.20334 -77.95139 34994 ft 447 kts 35°
2026-04-23 21:10 35.24460 -77.91262 34990 ft 446 kts 35°
2026-04-23 21:10 35.29372 -77.86616 34990 ft 446 kts 35°
2026-04-23 21:11 35.34280 -77.81959 34994 ft 446 kts 35°
2026-04-23 21:11 35.39184 -77.77302 34995 ft 446 kts 35°
2026-04-23 21:12 35.44084 -77.72638 34995 ft 446 kts 35°
2026-04-23 21:12 35.48948 -77.68001 34995 ft 445 kts 35°
2026-04-23 21:13 35.53846 -77.63326 34995 ft 445 kts 35°
2026-04-23 21:13 35.58729 -77.58645 34976 ft 445 kts 35°
2026-04-23 21:14 35.63612 -77.53956 34967 ft 445 kts 35°
2026-04-23 21:14 35.68490 -77.49275 34951 ft 445 kts 35°
2026-04-23 21:15 35.73359 -77.44579 34955 ft 444 kts 35°
2026-04-23 21:15 35.78196 -77.39927 34965 ft 444 kts 35°
2026-04-23 21:16 35.83071 -77.35257 34972 ft 444 kts 35°
2026-04-23 21:16 35.87937 -77.30576 34967 ft 443 kts 35°
2026-04-23 21:17 35.92823 -77.25920 34968 ft 442 kts 31°
2026-04-23 21:17 35.98034 -77.21919 34975 ft 440 kts 28°
2026-04-23 21:18 36.03255 -77.17991 34971 ft 439 kts 28°
2026-04-23 21:18 36.08420 -77.14071 34967 ft 439 kts 28°
2026-04-23 21:19 36.13640 -77.10142 34965 ft 439 kts 28°
2026-04-23 21:19 36.18852 -77.06202 34953 ft 438 kts 28°
2026-04-23 21:20 36.24047 -77.02256 34958 ft 438 kts 28°
2026-04-23 21:20 36.29259 -76.98300 34957 ft 439 kts 28°
2026-04-23 21:21 36.34434 -76.94363 34963 ft 439 kts 28°
2026-04-23 21:21 36.39639 -76.90397 34966 ft 439 kts 28°
2026-04-23 21:22 36.44841 -76.86425 34961 ft 439 kts 28°
2026-04-23 21:22 36.50051 -76.82439 34962 ft 439 kts 28°
2026-04-23 21:23 36.55250 -76.78456 34962 ft 439 kts 28°
2026-04-23 21:23 36.60447 -76.74460 34962 ft 439 kts 28°
2026-04-23 21:24 36.65616 -76.70485 34962 ft 439 kts 28°
2026-04-23 21:24 36.70806 -76.66476 34959 ft 439 kts 28°
2026-04-23 21:25 36.75909 -76.62554 34958 ft 439 kts 28°
2026-04-23 21:25 36.81116 -76.58549 34953 ft 439 kts 28°
2026-04-23 21:26 36.86306 -76.54537 34954 ft 439 kts 28°
2026-04-23 21:26 36.91503 -76.50509 34956 ft 439 kts 28°
2026-04-23 21:27 36.96689 -76.46486 34969 ft 439 kts 28°
2026-04-23 21:27 37.01876 -76.42460 34967 ft 439 kts 28°
2026-04-23 21:28 37.07021 -76.38453 34963 ft 439 kts 28°
2026-04-23 21:28 37.12203 -76.34414 34963 ft 439 kts 28°
2026-04-23 21:29 37.17383 -76.30365 34955 ft 439 kts 28°
2026-04-23 21:29 37.22537 -76.26318 34946 ft 438 kts 27°
2026-04-23 21:30 37.27719 -76.22272 34957 ft 438 kts 27°
2026-04-23 21:30 37.32896 -76.18216 34962 ft 438 kts 27°
2026-04-23 21:31 37.37680 -76.14459 34959 ft 438 kts 27°
2026-04-23 21:31 37.42623 -76.10569 34955 ft 437 kts 27°
2026-04-23 21:32 37.47018 -76.07100 34957 ft 437 kts 27°
2026-04-23 21:32 37.52172 -76.03029 34967 ft 437 kts 27°
2026-04-23 21:33 37.57319 -75.98958 34976 ft 436 kts 27°
2026-04-23 21:33 37.62344 -75.94918 34970 ft 436 kts 28°
2026-04-23 21:34 37.67422 -75.90717 34969 ft 436 kts 28°
2026-04-23 21:34 37.72497 -75.86511 34972 ft 436 kts 28°
2026-04-23 21:35 37.77531 -75.82322 34976 ft 435 kts 28°
2026-04-23 21:35 37.82597 -75.78121 34972 ft 435 kts 28°
2026-04-23 21:36 37.90170 -75.71796 34978 ft 435 kts 28°
2026-04-23 21:37 37.95224 -75.67568 34979 ft 434 kts 28°
2026-04-23 21:37 38.00270 -75.63343 34970 ft 434 kts 28°
2026-04-23 21:38 38.05306 -75.59125 34976 ft 434 kts 28°
2026-04-23 21:38 38.10158 -75.55058 34968 ft 434 kts 28°
2026-04-23 21:39 38.14101 -75.51746 34973 ft 434 kts 28°
2026-04-23 21:39 38.19192 -75.47464 34951 ft 434 kts 28°
2026-04-23 21:40 38.24226 -75.43230 34954 ft 433 kts 27°
2026-04-23 21:40 38.28914 -75.40537 34948 ft 420 kts
2026-04-23 21:41 38.34558 -75.39252 34952 ft 417 kts
2026-04-23 21:41 38.39499 -75.38246 34956 ft 417 kts
2026-04-23 21:42 38.45185 -75.37059 34959 ft 417 kts
2026-04-23 21:42 38.50842 -75.35856 34952 ft 416 kts
2026-04-23 21:43 38.56552 -75.34639 34946 ft 416 kts
2026-04-23 21:43 38.62265 -75.33421 34941 ft 416 kts
2026-04-23 21:44 38.67984 -75.32200 34940 ft 416 kts
2026-04-23 21:44 38.73688 -75.30987 34941 ft 416 kts
2026-04-23 21:45 38.79189 -75.28689 34925 ft 429 kts 22°
2026-04-23 21:45 38.84338 -75.24727 34947 ft 432 kts 25°
2026-04-23 21:46 38.89460 -75.20708 34949 ft 431 kts 24°
2026-04-23 21:46 38.94599 -75.16726 34966 ft 431 kts 24°
2026-04-23 21:47 38.99731 -75.12742 34967 ft 431 kts 24°
2026-04-23 21:47 39.04829 -75.08795 34968 ft 430 kts 24°
2026-04-23 21:48 39.09959 -75.04813 34967 ft 431 kts 24°
2026-04-23 21:48 39.15080 -75.00810 34966 ft 430 kts 24°
2026-04-23 21:49 39.20197 -74.96817 34940 ft 430 kts 24°
2026-04-23 21:49 39.25291 -74.92762 34937 ft 433 kts 27°
2026-04-23 21:50 39.29905 -74.87623 34930 ft 440 kts 35°
2026-04-23 21:50 39.34386 -74.82287 34991 ft 436 kts 34°
2026-04-23 21:51 39.38860 -74.76999 34952 ft 436 kts 34°
2026-04-23 21:51 39.43356 -74.71703 34945 ft 437 kts 34°
2026-04-23 21:52 39.47838 -74.66382 34945 ft 437 kts 34°
2026-04-23 21:52 39.51982 -74.61472 34936 ft 436 kts 34°
2026-04-23 21:53 39.56455 -74.56155 34945 ft 436 kts 34°
2026-04-23 21:53 39.60925 -74.50818 34932 ft 437 kts 34°
2026-04-23 21:54 39.65359 -74.45432 34941 ft 437 kts 34°
2026-04-23 21:54 39.69786 -74.40024 34928 ft 437 kts 34°
2026-04-23 21:55 39.74185 -74.34649 34924 ft 436 kts 34°
2026-04-23 21:55 39.78608 -74.29251 34928 ft 436 kts 34°
2026-04-23 21:56 39.83027 -74.23860 34925 ft 433 kts 32°
2026-04-23 21:56 39.87660 -74.19093 34950 ft 427 kts 29°
2026-04-23 21:57 39.92354 -74.14357 34926 ft 425 kts 28°
2026-04-23 21:57 39.96241 -74.10444 34926 ft 423 kts 29°
2026-04-23 21:58 40.00876 -74.05749 34929 ft 420 kts 28°
2026-04-23 21:58 40.05489 -74.01102 34893 ft 416 kts 27°
2026-04-23 21:58 40.07821 -73.98871 34544 ft 418 kts 27°
2026-04-23 21:59 40.10201 -73.96621 34282 ft 421 kts 27°
2026-04-23 21:59 40.12572 -73.94379 34044 ft 421 kts 27°
2026-04-23 21:59 40.14947 -73.92136 33791 ft 422 kts 27°
2026-04-23 22:00 40.19689 -73.87620 33243 ft 421 kts 27°
2026-04-23 22:00 40.22058 -73.85361 32990 ft 421 kts 27°
2026-04-23 22:00 40.24397 -73.83133 32734 ft 421 kts 27°
2026-04-23 22:00 40.26768 -73.80877 32480 ft 421 kts 27°
2026-04-23 22:01 40.29136 -73.78623 32143 ft 420 kts 27°
2026-04-23 22:01 40.31492 -73.76372 31593 ft 418 kts 27°
2026-04-23 22:01 40.33835 -73.74117 30979 ft 418 kts 27°
2026-04-23 22:01 40.36039 -73.72005 30373 ft 418 kts 27°
2026-04-23 22:02 40.38391 -73.69755 29657 ft 418 kts 27°
2026-04-23 22:02 40.40745 -73.67507 28934 ft 418 kts 27°
2026-04-23 22:02 40.43080 -73.65263 28303 ft 415 kts 27°
2026-04-23 22:02 40.45409 -73.63029 27713 ft 412 kts 26°
2026-04-23 22:03 40.47713 -73.60815 27154 ft 408 kts 26°
2026-04-23 22:03 40.49999 -73.58620 26581 ft 406 kts 26°
2026-04-23 22:03 40.52242 -73.56462 26022 ft 403 kts 26°
2026-04-23 22:03 40.54192 -73.54584 25550 ft 401 kts 26°
2026-04-23 22:04 40.56433 -73.52416 25003 ft 398 kts 26°
2026-04-23 22:04 40.58662 -73.50265 24447 ft 396 kts 26°
2026-04-23 22:04 40.60877 -73.48125 23880 ft 396 kts 26°
2026-04-23 22:04 40.63094 -73.45973 23290 ft 395 kts 26°
2026-04-23 22:05 40.65306 -73.43829 22667 ft 393 kts 26°
2026-04-23 22:05 40.66795 -73.42387 22247 ft 392 kts 26°
2026-04-23 22:05 40.68989 -73.40260 21618 ft 390 kts 26°
2026-04-23 22:05 40.71144 -73.38173 21040 ft 388 kts 26°
2026-04-23 22:06 40.73341 -73.36048 20470 ft 386 kts 26°
2026-04-23 22:06 40.75502 -73.33954 19921 ft 384 kts 27°
2026-04-23 22:06 40.77641 -73.31865 19364 ft 382 kts 27°
2026-04-23 22:06 40.79747 -73.29708 18827 ft 384 kts 31°
2026-04-23 22:07 40.81757 -73.27387 18503 ft 383 kts 32°
2026-04-23 22:07 40.83750 -73.25069 18247 ft 381 kts 32°
2026-04-23 22:07 40.85721 -73.22789 17977 ft 380 kts 32°
2026-04-23 22:07 40.87705 -73.20483 17709 ft 378 kts 32°
2026-04-23 22:08 40.89661 -73.18195 17441 ft 376 kts 32°
2026-04-23 22:08 40.91624 -73.15918 17179 ft 375 kts 32°
2026-04-23 22:08 40.93582 -73.13642 16917 ft 373 kts 32°
2026-04-23 22:08 40.95524 -73.11381 16657 ft 371 kts 32°
2026-04-23 22:09 40.97461 -73.09122 16404 ft 370 kts 32°
2026-04-23 22:09 40.99387 -73.06870 16140 ft 369 kts 32°
2026-04-23 22:09 41.01304 -73.04620 15892 ft 367 kts 32°
2026-04-23 22:09 41.03216 -73.02390 15639 ft 366 kts 32°
2026-04-23 22:10 41.05120 -73.00167 15401 ft 364 kts 32°
2026-04-23 22:10 41.07019 -72.97942 15158 ft 363 kts 32°
2026-04-23 22:10 41.08904 -72.95721 14918 ft 362 kts 32°
2026-04-23 22:10 41.10787 -72.93516 14682 ft 360 kts 32°
2026-04-23 22:11 41.12664 -72.91317 14436 ft 359 kts 32°
2026-04-23 22:11 41.14528 -72.89126 14195 ft 358 kts 32°
2026-04-23 22:11 41.16387 -72.86933 13955 ft 357 kts 32°
2026-04-23 22:11 41.18245 -72.84748 13728 ft 355 kts 32°
2026-04-23 22:12 41.20089 -72.82570 13470 ft 355 kts 32°
2026-04-23 22:12 41.21927 -72.80400 13200 ft 353 kts 32°
2026-04-23 22:12 41.23757 -72.78242 12810 ft 349 kts 32°
2026-04-23 22:12 41.25561 -72.76107 12335 ft 346 kts 32°
2026-04-23 22:13 41.27338 -72.74020 11805 ft 343 kts 31°
2026-04-23 22:13 41.29267 -72.72296 11307 ft 327 kts 17°
2026-04-23 22:13 41.31360 -72.71492 11038 ft 301 kts 359°
2026-04-23 22:13 41.33355 -72.71561 10982 ft 275 kts 345°
2026-04-23 22:14 41.35096 -72.72280 10971 ft 252 kts 332°
2026-04-23 22:14 41.36560 -72.73423 10977 ft 241 kts 325°
2026-04-23 22:14 41.37953 -72.74658 10989 ft 241 kts 324°
2026-04-23 22:14 41.39352 -72.75891 10991 ft 242 kts 326°
2026-04-23 22:15 41.40781 -72.77066 10997 ft 241 kts 326°
2026-04-23 22:15 41.42211 -72.78241 10998 ft 241 kts 326°
2026-04-23 22:15 41.43635 -72.79420 10998 ft 241 kts 326°
2026-04-23 22:15 41.45057 -72.80595 10943 ft 241 kts 326°
2026-04-23 22:16 41.46550 -72.81615 10683 ft 243 kts 338°
2026-04-23 22:16 41.48234 -72.81988 10387 ft 251 kts 353°
2026-04-23 22:16 41.49982 -72.81607 10041 ft 260 kts 11°
2026-04-23 22:16 41.51606 -72.80432 9645 ft 271 kts 27°
2026-04-23 22:17 41.53085 -72.78862 9225 ft 273 kts 30°
2026-04-23 22:17 41.54551 -72.77263 8794 ft 272 kts 31°
2026-04-23 22:17 41.56028 -72.75673 8355 ft 272 kts 31°
2026-04-23 22:17 41.57505 -72.74099 7980 ft 269 kts 31°
2026-04-23 22:18 41.58945 -72.72581 7697 ft 259 kts 31°
2026-04-23 22:18 41.60344 -72.71109 7312 ft 253 kts 31°
2026-04-23 22:18 41.61731 -72.69659 6842 ft 253 kts 32°
2026-04-23 22:18 41.63114 -72.68208 6376 ft 252 kts 33°
2026-04-23 22:19 41.64495 -72.66760 5885 ft 252 kts 33°
2026-04-23 22:19 41.65852 -72.65339 5429 ft 250 kts 33°
2026-04-23 22:19 41.67218 -72.63908 4994 ft 249 kts 33°
2026-04-23 22:19 41.68568 -72.62495 4605 ft 244 kts 33°
2026-04-23 22:20 41.69891 -72.61106 4246 ft 239 kts 33°
2026-04-23 22:20 41.71156 -72.59779 3893 ft 235 kts 32°
2026-04-23 22:20 41.72442 -72.58451 3534 ft 230 kts 33°
2026-04-23 22:20 41.73689 -72.57173 3265 ft 222 kts 33°
2026-04-23 22:21 41.74911 -72.55917 3010 ft 219 kts 33°
2026-04-23 22:21 41.76136 -72.54680 2968 ft 220 kts 32°
2026-04-23 22:21 41.77354 -72.53439 2973 ft 221 kts 33°
2026-04-23 22:21 41.78580 -72.52197 2987 ft 218 kts 31°
2026-04-23 22:22 41.79923 -72.51580 2963 ft 193 kts 353°
2026-04-23 22:22 41.81165 -72.52002 2970 ft 184 kts 330°
2026-04-23 22:22 41.82227 -72.52958 2984 ft 184 kts 319°
2026-04-23 22:22 41.83155 -72.54130 2869 ft 180 kts 311°
2026-04-23 22:23 41.83977 -72.55273 2717 ft 161 kts 313°
2026-04-23 22:23 41.84707 -72.56277 2512 ft 142 kts 313°
2026-04-23 22:23 41.85361 -72.57174 2288 ft 133 kts 312°
2026-04-23 22:23 41.86016 -72.58070 2101 ft 135 kts 313°
2026-04-23 22:24 41.86669 -72.58962 1908 ft 135 kts 314°
2026-04-23 22:24 41.87333 -72.59872 1719 ft 136 kts 313°
2026-04-23 22:24 41.87998 -72.60781 1548 ft 137 kts 313°
2026-04-23 22:24 41.88653 -72.61677 1358 ft 132 kts 313°
2026-04-23 22:25 41.89298 -72.62563 1176 ft 135 kts 311°
2026-04-23 22:25 41.89956 -72.63492 1044 ft 137 kts 312°
2026-04-23 22:25 41.90589 -72.64398 875 ft 133 kts 315°
2026-04-23 22:25 41.91250 -72.65265 744 ft 132 kts 314°
2026-04-23 22:26 41.91899 -72.66131 590 ft 129 kts 314°
2026-04-23 22:26 41.92530 -72.66995 372 ft 131 kts 314°
2026-04-23 22:26 41.93159 -72.67844 226 ft 120 kts 313°
2026-04-23 22:26 41.93638 -72.68500 217 ft 61 kts 315°
2026-04-23 22:27 41.93692 -72.68713 214 ft 12 kts 199°
2026-04-23 22:27 41.93608 -72.68665 214 ft 15 kts 135°
2026-04-23 22:27 41.93529 -72.68549 215 ft 19 kts 132°
2026-04-23 22:27 41.93426 -72.68416 210 ft 22 kts 136°
2026-04-23 22:28 41.93308 -72.68262 214 ft 25 kts 133°
2026-04-23 22:28 41.93186 -72.68090 213 ft 28 kts 135°
2026-04-23 22:28 41.93039 -72.67910 214 ft 28 kts 162°
2026-04-23 22:28 41.92915 -72.67991 213 ft 19 kts 225°
2026-04-23 22:29 41.92868 -72.68148 210 ft 5 kts 278°
2026-04-23 22:29 41.92892 -72.68196 212 ft 9 kts 339°
2026-04-23 22:29 41.92918 -72.68201 213 ft 3 kts 357°
2026-04-23 22:29 41.92926 -72.68201 214 ft 0 kts 358°